{"data":{"norad_id":56824,"intl_designator":"2023-079B","name":"STARLINK-30120","alt_names":[],"object_type":"PAYLOAD","status":"ACTIVE","operator":null,"country":"US","launch_date":"2023-06-04","launch_site_code":"AFETR","launch_vehicle":null,"mission":null,"orbit_class":"UNKNOWN","rcs_meters":null,"size_class":null,"mass_kg":null,"dimensions":null,"purposes":["comms"],"wikipedia_slug":null,"has_3d_model":false,"image_url":null,"decayed_at":null,"tle_current":{"epoch":"2026-09-19T22:54:11.970144Z","epoch_age_seconds":164803,"freshness":"FRESH","line1":"1 56824U 23079B   26262.95430521  .00000323  00000+0  21252-4 0  9996","line2":"2 56824  43.0021  90.3685 0001105 271.9478  88.1247 15.27576972182915","mean_motion":15.27576972,"eccentricity":0.0001105,"inclination_deg":43.0021,"raan_deg":90.3685,"arg_perigee_deg":271.9478,"mean_anomaly_deg":88.1247,"bstar":2.1252e-5,"rev_number":18291,"period_min":94.26693557148,"perigee_km":482.30000091044,"apogee_km":483.81632504146,"semimajor_km":6861.1951629759,"source":"CELESTRAK","updated_at":"2026-09-21T09:00:33.514797Z"}}}